Forside
METAR-TAF:

METAR-TAF

Lufthavne :

Effingham County Memorial Airport

Effingham, Illinois, USA

Breddekreds: 39-04-14N, længdekreds: 088-32-00W, højde: 179 m

Aktuelle vejr

Denne rapport blev lavet for 29 minutter siden, kl. 21:35 UTC
Vind 6 kt fra vest
Temperatur 3°C
Fugtighed 81%
Tryk 1021 hPa
Sigt: 16.1 km
Overskyet i en højde af 1500 ft

METAR: K1H2 162135Z AUTO 27006KT 10SM OVC015 03/00 A3014 RMK AO2 P0001 T00250000

Tid: 16:04 (22:04 UTC)


TAF: fraværende

Vejrobservationer og prognoser fra mere end 4000 lufthavne (METAR og TAF).

De gule og røde prikker repræsenterer de meteorologiske stationer.

Flyt musen over at se navnet på stationen.

Så klik over at se vejr observationer og prognoser.

At skifte det kort: Klik på de grønne knapper med et sort kors for at zoome ind; på den grønne knap med en bindestreg for at zoome ud; eller på de grønne pile for tilstødende kort.


METAR-TAF: